Regional Weather Roundup
Issued by NWS

Home | Current Version | Previous Version | Text Only | Print | Product List | Glossary On
Versions: 1 2 3 4 5 6 7 8 9 10 11 12 13 14 15 16 17 18 19 20 21 22 23 24 25 26 27 28 29 30 31 32 33 34 35 36 37 38 39 40 41 42 43 44 45 46 47 48 49 50
000
ASUS43 KDTX 311010
RWRMI
MICHIGAN HOURLY REGIONAL WEATHER ROUNDUP
NATIONAL WEATHER SERVICE DETROIT/PONTIAC MI
600 AM EDT SUN JUL 31 2016

NOTE: "FAIR" INDICATES FEW OR NO CLOUDS BELOW 12,000 FEET WITH NO
SIGNIFICANT WEATHER AND/OR OBSTRUCTION TO VISIBILITY.

MIZ047>049-052>055-059>063-066>070-074>076-081>083-311100-
SOUTHEAST LOWER MICHIGAN

CITY           SKY/WX    TMP DP  RH WIND       PRES   REMARKS
ADRIAN         CLOUDY    66  66 100 N6        30.00R
ALMA           RAIN      65  65 100 N7        30.03R
ANN ARBOR      PTCLDY    66  65  96 NW5       29.99R
BAD AXE        RAIN      62  61  97 CALM      30.04R
CARO           LGT RAIN  63  62  97 CALM      30.00F
DETROIT CITY   MOCLDY    67  65  93 N7        29.98R
DETROIT        PTCLDY    67  64  90 N6        29.98S
FLINT          CLOUDY    68  63  84 NW7       30.00S
GROSSE ILE     MOCLDY    68  65  92 NW3       29.96S
HILLSDALE      FOG       65  64  96 NE5       30.01R VSB 1/2
HOWELL         CLOUDY    65  64  97 NE3       30.00S

CITY           SKY/WX    TMP DP  RH WIND       PRES   REMARKS
JACKSON        CLOUDY    64  64 100 CALM      30.01R
LAMBERTVILLE   CLEAR     67  64  92 CALM      29.98R
LANSING        CLOUDY    65  62  90 NE3       30.01S
LAPEER         CLOUDY    64  63  96 CALM      30.02R
MASON          CLOUDY    65  63  92 CALM      30.01R
MONROE         PTCLDY    66  66  99 NW5       29.97R
MT. CLEMENS    PTCLDY    64  64 100 N6        29.96S
PONTIAC        MOCLDY    65  62  90 N7        29.99S
PORT HOPE        N/A     64  63  96 CALM      30.02S
PORT HURON     CLOUDY    68  63  83 CALM      29.99R
TRI CITIES     CLOUDY    66  65  96 N3        30.02S
MIDLAND        CLOUDY    64  63  97 N5        30.01F
TROY           CLEAR     67  63  86 N3        30.00S
SAGINAW HB     LGT RAIN  64  63  94 CALM      30.01R
$$
MIZ043>046-050>051-056>058-064>065-071>073-077>080-311100-
SOUTHWEST LOWER MICHIGAN

CITY           SKY/WX    TMP DP  RH WIND       PRES   REMARKS
BATTLE CREEK   CLOUDY    64  64 100 NE5       30.02R
BENTON HARBOR  CLOUDY    66  63  90 CALM      30.00R
BIG RAPIDS     CLOUDY    64  63  97 CALM      30.04R
COLDWATER      CLOUDY    66  66  98 NE6       30.00R
FREMONT        CLOUDY    65  65 100 NE5       30.03R
HOLLAND        CLOUDY    67  63  87 E5        30.01S
GRAND RAPIDS   CLOUDY    65  62  90 E8        30.01S
IONIA          CLOUDY    63  62  96 NE3       30.01S
KALAMAZOO      CLOUDY    67  63  87 VRB3      30.01R
LUDINGTON      CLOUDY    62  61  97 E3        30.03S
MARSHALL       CLOUDY    65  65  98 CALM      30.00R
MOUNT PLEASANT PTCLDY    63  61  93 N5        30.02S
MUSKEGON       CLOUDY    66  62  87 NE6       30.02R
SOUTH HAVEN    CLOUDY    64  64  98 CALM      30.01R
$$
MIZ016>042-311100-
NORTHERN LOWER MICHIGAN

CITY           SKY/WX    TMP DP  RH WIND       PRES   REMARKS
ALPENA         LGT RAIN  64  60  87 CALM      30.06S
BEAVER ISLAND  CLEAR     53  53  99 CALM      30.07S
BELLAIRE       CLOUDY    52  50  93 CALM      30.07R
CADILLAC       CLOUDY    62  56  80 CALM      30.05S
CHARLEVOIX     CLEAR     58  55  89 CALM      30.09S
FRANKFORT      MOCLDY    60  58  91 CALM      30.05R
GAYLORD        CLOUDY    64  54  69 NE5       30.08R
GRAYLING       LGT RAIN  60  60  97 NE3       30.08R
HARBOR SPRINGS CLOUDY    61  55  82 N5        30.07S
HOUGHTON LAKE  CLOUDY    61  58  90 NE3       30.06S
MANISTEE       CLOUDY    61  60  97 CALM      30.04R
OSCODA         CLOUDY    63  63  99 NW5       30.03S
PELLSTON       CLOUDY    58  53  84 CALM      30.08R
ROGERS CITY    CLOUDY    62  58  88 CALM      30.07S
TRAVERSE CITY  PTCLDY    59  56  89 CALM      30.04S
$$
MIZ007>008-015-311100-
EASTERN UPPER MICHIGAN

CITY           SKY/WX    TMP DP  RH WIND       PRES   REMARKS
KINROSS        PTCLDY    58  55  90 CALM      30.08R
MACKINAC ISLAN CLOUDY    61  57  86 NE6       30.07S
NEWBERRY       CLEAR     55  54  94 CALM      30.08R
S. S. MARIE    CLEAR     58  55  90 CALM      30.07S
MUNISING         N/A     53  51  93 S7        30.07R
$$
MIZ004>006-011>014-085-311100-
CENTRAL UPPER MICHIGAN

CITY           SKY/WX    TMP DP  RH WIND       PRES   REMARKS
MANISTIQUE     CLEAR     52  51  97 CALM      30.07S
ESCANABA       CLEAR     54  50  87 CALM      30.05S
MENOMINEE      PTCLDY   N/A N/A N/A N6        30.06R
SAWYER-GWINN   CLEAR     50  48  93 CALM      30.09S
$$
MIZ001>003-009>011-084-311100-
WESTERN UPPER MICHIGAN

CITY           SKY/WX    TMP DP  RH WIND       PRES   REMARKS
IRON MOUNTAIN  MOCLDY    50  47  89 NW5       30.08R
HOUGHTON       CLEAR     56  51  84 NW3       30.07S
COPPER HARBOR    N/A     64  57  78 SW8       30.05S
IRONWOOD       CLEAR     63  52  67 S6        30.06R
$$

ABBREVIATIONS USED IN REMARKS
   TC - TEMPERATURE IN CELSIUS
  WCI - WIND CHILL INDEX
   HX - HEAT INDEX
  VSB - VISIBILITY




USA.gov is the U.S. government's official web portal to all federal, state and local government web resources and services.